Terug naar catalogus

STARLINK-32008

ActiefCommunicatieVLEO
NORAD 60028·PAYLOAD·🇺🇸 United States

Gelanceerd Jun 8, 2024 vanaf Cape Canaveral Space Force Station

Loading…

Volgende Passages (komende 24 uur)

TLE

VersSource: CelesTrak SupGP

Epoch: Sep 14, 2026, 20:48 UTC

1 60028C 24111N   26257.86715278  .00036326  00000+0  10739-2 0  2579
2 60028  53.1579 276.1463 0001148  91.9383  72.3053 15.34353615    11

Volg STARLINK-32008 in realtime met AllMySat

Download on the App Store